Location: ????????
(41.2031°N, 22.5756°E)
Time: 05:49:10
(UTC+00:00)

NOSS 3-2 (C) - Pass Details

Date: 01 December 2020
Orbit: 789 x 1424 km, 63.4° (Epoch: 09 January)

Event Time Altitude Azimuth Distance (km) Brightness Sun altitude
Rises 18:08:30 0° 233° (SW) 3,331 7.0 -34.5°
Reaches altitude 10° 18:10:55 10° 239° (WSW) 2,447 6.2 -35.0°
Enters shadow 18:15:13 42° 281° (WNW) 1,248 4.3 -35.8°
